Precipitable_Water
0.79 0.77 0.74 0.70 0.67 0.67 0.66 0.64 0.65 0.64 0.63 0.63 0.64 0.66 0.67 0.69 0.71 0.71 0.71 0.70 0.69 0.68 0.67 0.66 0.66 0.64 0.63 0.61 0.59 0.55 0.51 0.49 0.49 0.50 0.49 0.51 0.51 0.51 0.50 0.49 0.48 0.47
0.80 0.79 0.78 0.75 0.71 0.69 0.69 0.68 0.67 0.67 0.65 0.66 0.68 0.69 0.71 0.71 0.72 0.71 0.70 0.68 0.68 0.67 0.67 0.66 0.65 0.64 0.62 0.60 0.57 0.53 0.49 0.49 0.48 0.51 0.50 0.49 0.48 0.47 0.45 0.44 0.42 0.40
0.82 0.80 0.78 0.74 0.72 0.69 0.68 0.69 0.68 0.68 0.68 0.69 0.71 0.71 0.71 0.72 0.70 0.71 0.70 0.69 0.68 0.68 0.67 0.67 0.65 0.64 0.61 0.58 0.53 0.49 0.47 0.47 0.47 0.47 0.46 0.44 0.43 0.41 0.39 0.37 0.33 0.28
0.83 0.83 0.80 0.77 0.75 0.73 0.71 0.69 0.68 0.69 0.70 0.69 0.70 0.72 0.72 0.71 0.71 0.70 0.70 0.70 0.69 0.68 0.68 0.66 0.64 0.62 0.59 0.54 0.49 0.45 0.44 0.44 0.44 0.44 0.42 0.40 0.38 0.34 0.29 0.24 0.21 0.20
0.84 0.85 0.84 0.80 0.78 0.77 0.74 0.69 0.68 0.69 0.70 0.71 0.73 0.74 0.72 0.72 0.70 0.70 0.69 0.69 0.69 0.67 0.66 0.64 0.62 0.59 0.53 0.46 0.43 0.42 0.43 0.43 0.42 0.40 0.36 0.31 0.27 0.22 0.20 0.20 0.19 0.19
0.86 0.87 0.87 0.83 0.79 0.77 0.73 0.71 0.70 0.71 0.72 0.72 0.72 0.73 0.72 0.71 0.70 0.69 0.69 0.69 0.68 0.67 0.64 0.61 0.57 0.51 0.45 0.42 0.42 0.43 0.42 0.40 0.36 0.31 0.24 0.20 0.20 0.21 0.21 0.21 0.21 0.21
0.86 0.85 0.86 0.86 0.80 0.78 0.76 0.73 0.73 0.74 0.74 0.75 0.75 0.73 0.72 0.70 0.69 0.69 0.70 0.69 0.67 0.65 0.61 0.56 0.50 0.44 0.42 0.42 0.42 0.40 0.38 0.33 0.26 0.21 0.20 0.20 0.20 0.20 0.22 0.22 0.23 0.23
0.88 0.89 0.88 0.87 0.82 0.79 0.77 0.76 0.75 0.75 0.76 0.76 0.74 0.73 0.72 0.70 0.69 0.69 0.69 0.68 0.65 0.61 0.56 0.51 0.45 0.41 0.42 0.42 0.39 0.35 0.28 0.24 0.21 0.21 0.20 0.20 0.21 0.21 0.22 0.23 0.24 0.24
0.91 0.90 0.88 0.85 0.81 0.80 0.77 0.77 0.77 0.77 0.77 0.75 0.73 0.72 0.72 0.71 0.69 0.69 0.68 0.66 0.62 0.57 0.52 0.46 0.42 0.41 0.41 0.39 0.33 0.25 0.22 0.21 0.22 0.21 0.21 0.21 0.21 0.22 0.22 0.23 0.23 0.23
0.90 0.91 0.88 0.83 0.80 0.80 0.78 0.78 0.79 0.79 0.78 0.75 0.73 0.72 0.71 0.71 0.70 0.69 0.67 0.63 0.58 0.52 0.47 0.43 0.41 0.40 0.37 0.30 0.25 0.22 0.21 0.21 0.21 0.21 0.22 0.22 0.22 0.22 0.22 0.22 0.23 0.23
0.90 0.88 0.85 0.82 0.80 0.80 0.78 0.79 0.80 0.80 0.79 0.76 0.73 0.71 0.71 0.70 0.69 0.67 0.64 0.59 0.53 0.48 0.44 0.41 0.40 0.36 0.28 0.24 0.23 0.23 0.22 0.21 0.22 0.22 0.22 0.22 0.22 0.22 0.23 0.22 0.22 0.23
0.90 0.88 0.84 0.81 0.80 0.79 0.78 0.79 0.80 0.79 0.77 0.75 0.73 0.71 0.69 0.68 0.66 0.64 0.59 0.54 0.49 0.45 0.42 0.41 0.36 0.29 0.24 0.23 0.22 0.22 0.22 0.22 0.22 0.22 0.22 0.22 0.22 0.22 0.22 0.22 0.22 0.22
0.90 0.89 0.84 0.81 0.79 0.78 0.79 0.79 0.79 0.77 0.75 0.74 0.73 0.70 0.68 0.65 0.63 0.59 0.55 0.50 0.45 0.42 0.40 0.35 0.30 0.27 0.24 0.22 0.22 0.22 0.22 0.21 0.21 0.21 0.21 0.22 0.22 0.21 0.21 0.22 0.21 0.22
0.91 0.91 0.85 0.81 0.79 0.79 0.78 0.78 0.77 0.76 0.75 0.73 0.71 0.68 0.66 0.63 0.59 0.54 0.50 0.45 0.42 0.40 0.35 0.30 0.27 0.26 0.25 0.23 0.22 0.22 0.22 0.22 0.21 0.21 0.21 0.20 0.20 0.20 0.20 0.20 0.21 0.21
0.91 0.89 0.85 0.81 0.78 0.77 0.77 0.76 0.75 0.73 0.72 0.71 0.69 0.67 0.64 0.60 0.55 0.48 0.43 0.41 0.39 0.34 0.29 0.27 0.25 0.24 0.25 0.25 0.24 0.22 0.23 0.22 0.22 0.21 0.20 0.19 0.19 0.19 0.19 0.20 0.20 0.21
0.88 0.84 0.79 0.77 0.76 0.75 0.74 0.73 0.71 0.70 0.69 0.68 0.66 0.64 0.60 0.55 0.48 0.43 0.40 0.37 0.32 0.29 0.27 0.26 0.25 0.25 0.25 0.25 0.26 0.25 0.22 0.22 0.22 0.21 0.20 0.20 0.19 0.18 0.18 0.19 0.20 0.20
0.84 0.78 0.75 0.74 0.74 0.74 0.72 0.70 0.69 0.69 0.68 0.66 0.64 0.61 0.55 0.47 0.42 0.39 0.36 0.32 0.29 0.26 0.25 0.25 0.25 0.25 0.25 0.25 0.24 0.25 0.24 0.22 0.21 0.20 0.20 0.19 0.18 0.18 0.17 0.18 0.19 0.20
0.78 0.74 0.72 0.72 0.73 0.71 0.70 0.69 0.68 0.67 0.65 0.63 0.60 0.54 0.47 0.42 0.39 0.36 0.33 0.30 0.27 0.26 0.24 0.24 0.24 0.25 0.25 0.25 0.24 0.24 0.23 0.22 0.21 0.20 0.20 0.19 0.18 0.18 0.17 0.17 0.18 0.19
0.73 0.70 0.69 0.69 0.70 0.69 0.68 0.67 0.65 0.64 0.62 0.59 0.54 0.48 0.42 0.38 0.35 0.33 0.30 0.28 0.26 0.24 0.23 0.24 0.24 0.25 0.25 0.25 0.24 0.23 0.22 0.22 0.20 0.20 0.19 0.18 0.18 0.18 0.17 0.17 0.18 0.19
0.67 0.66 0.66 0.67 0.68 0.67 0.66 0.65 0.63 0.60 0.59 0.55 0.48 0.42 0.39 0.36 0.34 0.31 0.28 0.26 0.25 0.24 0.23 0.23 0.24 0.24 0.24 0.24 0.23 0.22 0.21 0.21 0.19 0.19 0.18 0.17 0.17 0.17 0.18 0.17 0.18 0.18
0.63 0.63 0.65 0.66 0.66 0.65 0.64 0.62 0.60 0.58 0.54 0.48 0.43 0.40 0.36 0.33 0.31 0.28 0.27 0.26 0.25 0.24 0.23 0.22 0.23 0.24 0.23 0.23 0.23 0.22 0.20 0.20 0.19 0.18 0.17 0.17 0.16 0.17 0.17 0.17 0.17 0.19
0.61 0.63 0.64 0.64 0.64 0.63 0.61 0.59 0.57 0.53 0.46 0.44 0.41 0.38 0.36 0.34 0.31 0.28 0.26 0.25 0.24 0.23 0.22 0.21 0.23 0.23 0.23 0.22 0.22 0.22 0.20 0.18 0.17 0.16 0.16 0.16 0.15 0.16 0.16 0.17 0.17 0.18
0.62 0.63 0.63 0.62 0.61 0.60 0.58 0.56 0.51 0.46 0.44 0.43 0.39 0.36 0.33 0.31 0.29 0.27 0.26 0.24 0.23 0.22 0.21 0.22 0.23 0.23 0.22 0.22 0.21 0.21 0.19 0.17 0.16 0.15 0.15 0.15 0.15 0.16 0.16 0.16 0.16 0.18
0.62 0.62 0.61 0.60 0.59 0.57 0.54 0.50 0.45 0.44 0.43 0.42 0.37 0.33 0.31 0.30 0.29 0.28 0.27 0.26 0.24 0.23 0.23 0.21 0.22 0.23 0.22 0.21 0.20 0.20 0.19 0.16 0.16 0.15 0.14 0.14 0.14 0.15 0.15 0.15 0.15 0.16
0.62 0.61 0.60 0.59 0.56 0.53 0.49 0.44 0.43 0.43 0.43 0.41 0.37 0.34 0.31 0.30 0.29 0.26 0.24 0.24 0.25 0.25 0.25 0.22 0.21 0.22 0.22 0.21 0.20 0.20 0.19 0.17 0.16 0.14 0.13 0.13 0.13 0.14 0.14 0.14 0.14 0.15
0.62 0.61 0.59 0.57 0.52 0.47 0.43 0.42 0.43 0.42 0.40 0.38 0.35 0.32 0.28 0.27 0.25 0.24 0.22 0.22 0.23 0.23 0.23 0.23 0.21 0.21 0.22 0.20 0.20 0.19 0.18 0.17 0.16 0.14 0.13 0.13 0.13 0.14 0.13 0.13 0.14 0.14
Wind_Speed
11 12 13 13 13 14 14 14 14 14 15 15 15 16 17 17 17 17 17 17 17 17 18 18 18 19 19 20 20 20 21 21 21 22 23 24 25 26 27 28 28 29
12 13 14 14 14 14 15 15 15 15 15 16 16 17 17 17 17 17 17 17 17 18 18 18 19 20 20 21 21 21 22 22 23 24 25 26 26 27 28 29 30 31
12 13 14 14 14 15 15 15 15 15 16 16 17 17 17 17 17 17 17 17 18 18 19 20 20 21 21 22 22 22 23 24 24 25 26 27 28 29 30 31 31 32
13 13 14 15 15 15 15 16 16 16 16 17 17 17 17 17 17 17 17 18 18 19 20 21 21 22 23 23 23 24 24 25 26 26 27 28 29 30 31 32 32 33
13 13 14 15 15 15 16 16 16 17 17 17 17 17 17 17 18 18 18 18 19 20 21 22 22 23 23 24 24 25 25 26 27 28 29 29 30 31 32 32 33 34
13 13 14 15 15 15 16 16 16 17 17 17 17 17 17 18 18 18 19 19 20 21 22 23 23 24 24 25 25 26 26 27 28 29 29 30 31 32 32 33 34 35
13 14 15 15 16 16 16 16 17 17 17 17 17 17 18 18 18 19 19 20 21 22 23 24 24 25 25 25 26 26 27 28 29 29 30 31 32 32 33 34 35 36
13 15 15 16 16 16 16 16 17 17 17 17 17 18 18 18 19 19 20 21 22 24 24 25 25 25 26 26 27 27 28 28 29 30 31 31 32 33 34 35 36 37
14 15 16 16 16 16 16 16 17 17 17 17 17 18 18 19 19 20 21 22 24 25 25 25 25 26 26 27 27 28 28 29 30 30 31 32 33 34 35 36 36 37
14 15 16 16 16 16 16 16 16 17 17 17 18 18 19 19 20 21 22 24 25 25 25 25 26 26 27 27 27 28 29 29 30 31 31 32 33 34 35 36 37 38
14 15 16 16 15 16 16 16 16 17 17 18 18 18 19 20 21 22 23 24 25 25 25 25 26 26 27 27 28 28 29 30 30 31 32 33 34 35 36 37 38 39
14 15 15 15 15 15 16 16 17 17 17 17 18 19 20 21 22 23 24 25 25 25 25 26 26 26 27 27 28 29 30 30 31 32 33 34 34 36 37 38 39 40
14 15 15 15 15 15 16 16 16 17 17 17 18 19 21 22 23 24 24 25 25 25 25 26 26 26 27 28 29 29 30 31 31 32 33 34 35 36 37 39 40 41
14 14 15 15 15 15 16 16 16 17 17 17 18 20 21 23 24 24 24 24 25 25 25 26 26 27 27 28 29 29 30 31 32 33 34 35 36 37 38 39 40 41
13 14 14 14 15 15 16 16 16 16 17 18 19 21 22 23 24 24 24 24 25 25 25 26 26 27 28 28 29 30 30 31 32 33 34 35 36 37 38 40 41 42
13 14 14 14 14 15 15 16 16 16 17 19 20 22 23 23 23 24 24 24 25 25 25 26 27 27 28 29 29 30 31 32 33 33 35 36 37 38 39 40 42 43
13 13 13 14 14 15 15 16 16 17 18 19 21 22 23 23 23 23 24 24 24 25 26 26 27 28 28 29 30 30 31 32 33 34 35 36 37 39 40 41 43 44
12 12 13 13 14 15 15 16 17 18 19 20 21 22 23 23 23 23 23 24 24 25 26 27 27 28 29 29 30 31 32 32 33 34 35 36 38 39 41 42 43 44
12 12 12 13 14 15 16 17 18 19 20 20 21 22 22 22 22 23 23 24 24 25 26 27 27 28 29 29 30 31 32 33 34 35 36 37 38 39 41 43 44 45
11 12 12 13 14 15 16 17 18 19 20 21 21 21 21 21 22 22 23 24 24 25 26 27 27 28 29 30 30 31 32 33 34 35 36 37 38 40 41 43 44 45
11 11 12 13 14 16 17 17 18 19 20 20 20 21 21 21 21 22 23 23 24 25 26 27 27 28 29 30 31 32 33 34 34 35 36 37 39 40 42 43 45 46
11 11 12 14 15 16 17 18 19 19 19 20 20 20 21 21 21 22 23 23 24 25 26 27 27 28 29 30 31 32 33 34 34 35 36 38 39 41 42 43 45 46
11 12 13 14 15 16 17 18 18 19 19 19 20 20 20 21 21 22 22 23 24 25 26 26 27 28 29 30 31 32 33 34 34 35 37 38 40 41 42 44 45 47
11 12 14 15 16 16 17 18 18 19 19 20 20 20 20 20 21 22 22 23 24 25 26 26 27 28 29 30 31 33 33 34 35 36 37 39 40 41 42 44 45 47
12 13 14 15 16 16 17 17 18 19 19 19 20 20 20 20 21 21 22 23 24 25 26 26 27 28 29 31 32 33 33 34 35 36 37 39 40 41 43 44 45 47
12 13 14 15 15 16 17 17 18 19 19 19 19 20 20 20 21 21 22 23 24 25 26 26 27 28 29 31 32 33 34 34 35 36 38 39 40 42 43 44 46 47
Wind_Direction
346 347 348 349 349 349 348 347 345 344 344 343 341 341 339 337 335 334 334 335 335 335 336 336 335 334 333 332 331 329 328 327 326 324 323 322 321 320 320 319 318 317
343 345 347 347 348 348 348 347 346 344 344 343 342 340 338 337 337 337 337 337 337 338 338 337 337 336 334 333 331 329 328 327 326 324 323 323 322 321 321 320 319 318
341 343 344 345 346 347 347 347 346 344 342 341 339 339 339 339 340 340 340 339 339 339 339 338 337 336 334 333 331 330 328 327 326 325 324 324 323 322 322 321 320 319
338 339 341 343 344 344 345 345 344 343 341 340 339 339 339 340 340 341 341 340 339 339 339 337 336 335 334 333 331 329 328 327 326 326 325 325 324 323 323 322 321 321
335 335 338 341 342 342 342 343 343 343 342 341 340 340 340 340 340 340 340 340 339 338 337 336 335 334 333 332 330 329 329 328 328 327 327 326 326 325 325 324 324 323
334 335 336 338 339 340 341 341 341 342 342 341 340 340 340 340 340 341 340 340 339 338 337 335 334 333 333 332 331 331 330 330 329 329 328 328 328 327 326 326 325 324
332 335 335 335 336 337 338 339 340 341 340 339 339 339 339 340 340 340 339 338 338 337 336 335 334 333 333 332 332 332 331 331 330 330 330 329 329 328 328 327 326 326
331 335 336 336 336 335 336 338 339 339 337 336 337 338 339 338 338 339 339 338 337 336 335 335 334 334 334 333 333 333 332 332 332 332 331 330 330 330 329 328 327 327
330 335 337 336 335 335 336 339 339 338 337 336 337 337 338 339 339 339 338 337 337 336 335 335 334 334 334 334 334 334 334 333 333 332 332 332 331 331 331 330 329 328
330 335 337 335 335 336 338 339 338 337 338 338 338 338 339 340 340 339 338 337 336 336 335 335 335 335 335 335 335 335 335 334 334 333 333 333 333 332 332 331 330 330
333 335 337 336 337 338 339 338 338 338 338 338 339 339 340 340 340 339 337 336 336 336 336 336 336 336 336 336 336 336 335 335 334 334 334 334 333 333 332 332 331 331
334 336 337 337 337 338 338 338 338 338 338 340 341 342 341 340 339 338 337 336 336 336 337 337 337 337 337 337 336 336 336 335 335 335 335 335 334 334 334 333 333 332
334 336 337 337 337 338 338 339 340 340 341 343 343 343 342 341 340 338 338 337 337 338 338 338 338 338 338 338 337 337 336 336 337 336 336 336 335 335 335 335 334 334
334 335 337 337 338 338 339 340 341 341 342 343 343 342 342 341 340 339 339 339 339 340 340 340 340 339 339 338 338 338 338 338 338 337 337 337 337 337 337 336 336 335
335 335 335 337 338 340 341 341 341 341 342 341 342 342 341 341 341 340 340 340 341 341 341 341 341 340 340 340 339 339 339 338 338 338 338 338 338 338 338 338 337 337
335 335 334 337 339 341 342 342 342 341 341 341 341 341 341 340 341 341 341 341 342 342 342 342 341 341 341 341 341 341 340 339 339 339 339 339 340 340 340 339 339 338
334 333 334 338 341 342 343 342 341 340 339 340 340 339 340 340 340 341 341 342 343 343 343 342 342 342 342 342 342 342 341 340 340 340 341 341 341 341 341 341 340 340
333 332 335 339 341 342 342 341 340 339 339 338 338 338 339 339 340 341 342 343 343 343 343 343 343 343 343 343 343 343 342 342 341 342 342 342 342 342 342 342 342 341
331 333 337 340 341 341 341 340 339 339 338 337 337 338 339 340 341 341 342 343 343 343 343 343 343 344 344 344 343 343 343 343 343 343 344 343 343 344 344 343 343 342
331 335 339 340 340 340 340 339 339 338 337 337 338 339 339 340 341 341 342 343 343 344 343 343 344 344 344 344 344 344 345 344 344 344 345 345 345 345 345 344 344 343
332 337 340 340 340 339 339 338 338 338 338 338 339 340 340 341 341 342 343 343 343 344 343 343 344 345 345 345 345 345 346 346 345 345 346 346 346 346 346 346 345 345
334 339 340 339 338 338 338 338 338 338 339 339 340 341 341 341 342 342 343 344 344 344 344 344 345 346 346 346 346 347 347 347 347 346 347 347 348 348 348 347 347 346
335 338 338 338 337 337 338 338 338 339 340 341 341 342 342 341 342 343 343 344 344 344 344 345 345 346 347 347 347 348 348 348 348 348 348 349 349 349 349 349 348 348
335 336 337 337 337 337 338 339 339 340 341 342 342 342 342 342 343 343 344 344 344 345 346 346 346 347 348 348 348 349 349 349 349 349 350 350 351 351 350 350 350 350
334 335 336 337 337 338 339 339 341 342 342 342 342 342 343 344 344 344 344 345 345 346 347 347 347 348 349 349 350 351 351 350 350 351 351 352 352 352 352 352 351 351
334 335 336 337 338 340 340 341 342 343 343 343 343 343 344 344 344 345 345 346 346 347 348 348 348 349 350 350 351 352 352 351 351 352 353 353 353 353 353 353 353 352